Weather in Taldikorgan

Kazakhstan     45°01′04″N   78°22′55″E
В апреле 2022 года жителям России запретили посещать сайт meteo.paraplan.net по решению Генеральной прокуратуры. Аудитория сайта уменьшилась в 10 раз. Владельцы сайта не видят смысла в поддержке погодного сервера в таких условиях. Сайт будет закрыт в октябре.
temp.,
°C
wind,
m/s
gust,
m/s
humid.,
%
clouds,
%
prec.,
mm/h
press.,
hPa
HPBL,
m
3 october, mon
mon300:00+5ene22220 0.0 102210
03:00+5e12180 0.0 102011
06:00+5e11170 0.0 102010
09:00+12n2110100 0.0 1018179
12:00+17nnw4386 0.0 1017694
15:00+20n559100 0.0 1015964
18:00+15n4613100 0.0 1016112
21:00+10s0120100 0.0 101911
4 october, tue
tue400:00+9e0121100 0.0 102010
03:00+9s0121100 0.0 102010
06:00+10ese1121100 0.0 102111
09:00+14w321798 0.0 1022278
12:00+18sw121599 0.0 1021702
15:00+20nw4319100 0.0 10201358
18:00+15n462229 0.0 1022111
21:00+11ese113249 0.0 102411
5 october, wed
wed500:00+9ene223935 0.0 102412
03:00+9nne223997 0.0 102414
06:00+8ne11405 0.0 102512
09:00+13n212837 0.0 1026208
12:00+18nnw43205 0.0 1025697
15:00+20n76182 0.0 10241195
18:00+17nne611232 0.0 1025321
21:00+11ene23340 0.0 102727
6 october, thu
thu600:00+9ne22370 0.0 102813
03:00+8ne11390 0.0 102712
06:00+8ne22400 0.0 102712
09:00+14nnw11270 0.0 1026180
12:00+20n44190 0.0 1024743
15:00+23n76160 0.0 10221443
18:00+18nne711200 0.0 1022296
21:00+11e22310 0.0 102417
7 october, fri
fri700:00+11ese11320 0.0 102311
03:00+10ene11340 0.0 102311
06:00+10ene113436 0.0 102211
09:00+16nw01230 0.0 1022179
12:00+22nnw33150 0.0 1019889
15:00+24n65110 0.0 10171547
18:00+19nne510170 0.0 1018186
21:00+13ese22250 0.0 102011